Location: ActonStarParty
(42.4766°N, 71.4538°W)
Time: 15:41:27
(UTC-04:00)

Amateur Radio Satellites - All Passes

Search period start: 30 June 2015 15:11
Search period end: 01 July 2015 15:11
Location: ActonStarParty, 42.4766°N, 71.4538°W

Satellite Date Start Highest point End Downlink Frequencies (MHz)
Time Altitude Azimuth
Gurwin Techsat 1B 30 Jun 15:17:15 15:21:54 30° 265° (W) 15:26:30 435.225
SWISSCUBE 30 Jun 15:19:57 15:24:25 38° 290° (WNW) 15:28:48 437.505
ITUPSAT 1 30 Jun 15:22:57 15:27:27 39° 290° (WNW) 15:31:53 437.325
STARS 30 Jun 15:24:07 15:27:43 25° 94° (E) 15:31:23 437.465
JAS-2 30 Jun 15:46:35 15:51:43 65° 258° (WSW) 15:56:59 435.910
ITAMSAT 1 30 Jun 15:52:15 15:55:16 15° 272° (W) 15:58:01 435.822/435.867
HORYU 2 30 Jun 15:55:17 15:59:42 70° 259° (W) 16:04:07 437.375
KKS-1 30 Jun 15:56:23 16:00:51 87° 284° (WNW) 16:05:16 437.445
AIST 1 30 Jun 16:12:20 16:16:41 65° 95° (E) 16:21:04
Cosmos 2504 30 Jun 16:12:43 16:18:36 25° 66° (ENE) 16:25:02 435.465 / 435.565
ISS 30 Jun 16:14:14 16:17:28 78° 216° (SW) 16:20:42 145.825
PHONESAT 2.4 30 Jun 16:17:14 16:19:47 19° 207° (SSW) 16:22:18 2401.200-2431.200
BEESAT 3 30 Jun 16:37:18 16:41:01 33° 49° (NE) 16:44:42 437.485
PCSat 30 Jun 16:41:02 16:46:20 59° 116° (ESE) 16:51:42 145.827
BEESAT 2 30 Jun 16:43:01 16:46:41 31° 48° (NE) 16:50:20 435.950
YUBILEINY 30 Jun 16:43:21 16:50:41 30° 276° (W) 16:57:47 435.215
Cubesat XI-IV 30 Jun 16:46:38 16:49:45 16° 61° (ENE) 16:53:04 437.490
STARS 30 Jun 17:00:20 17:04:11 30° 291° (WNW) 17:07:58 437.465
AO-7 30 Jun 17:01:14 17:08:45 35° 264° (W) 17:16:10 29.400- 29.500
SO-50 30 Jun 17:01:29 17:04:39 19° 111° (ESE) 17:08:01 436.795
Cosmos 2491 30 Jun 17:02:17 17:10:44 47° 287° (WNW) 17:19:07 435.465 / 435.565
MOZHAYETS 4 30 Jun 17:17:18 17:21:57 70° 102° (ESE) 17:26:36
O/OREOS (USA 219) 30 Jun 17:18:19 17:22:01 25° 56° (ENE) 17:25:46 437.305
AIST 2 30 Jun 17:31:41 17:35:18 27° 46° (NE) 17:38:55 435.215
CUTE-I 30 Jun 17:51:15 17:56:29 57° 72° (ENE) 18:01:46 437.470
AIST 1 30 Jun 17:53:03 17:54:54 12° 295° (WNW) 17:56:33
Cosmos 2504 30 Jun 18:05:09 18:12:41 68° 266° (W) 18:20:45 435.465 / 435.565
BEESAT 3 30 Jun 18:15:31 18:18:50 24° 246° (WSW) 18:22:02 437.485
BEESAT 2 30 Jun 18:21:12 18:24:41 26° 245° (WSW) 18:28:03 435.950
Cubesat XI-IV 30 Jun 18:23:56 18:29:17 75° 257° (WSW) 18:34:42 437.490
HO-68 30 Jun 18:24:40 18:27:38 13° 51° (NE) 18:30:59 435.675
PCSat 30 Jun 18:25:47 18:30:11 24° 315° (NW) 18:34:32 145.827
SO-50 30 Jun 18:40:05 18:44:47 57° 308° (NW) 18:49:37 436.795
MOZHAYETS 4 30 Jun 18:56:16 18:58:40 14° 297° (WNW) 19:00:52
O/OREOS (USA 219) 30 Jun 18:57:24 19:01:33 35° 254° (WSW) 19:05:39 437.305
DANDE 30 Jun 19:04:43 19:06:43 16° 66° (ENE) 19:08:35 436.750
CUBESAT XI-V 30 Jun 19:08:30 19:13:15 85° 103° (ESE) 19:17:55 437.345
GOMX 1 30 Jun 19:09:45 19:13:45 23° 67° (ENE) 19:17:41 467.674
AIST 2 30 Jun 19:10:07 19:13:55 33° 244° (WSW) 19:17:37 435.215
BRITE-PL 30 Jun 19:10:31 19:15:35 38° 71° (ENE) 19:20:28 437.365/2234.400
CUTE 1.7 + AOD 2 30 Jun 19:19:46 19:21:31 13° 64° (ENE) 19:23:28 437.475
GONETS M04 30 Jun 19:21:41 19:28:28 25° 63° (ENE) 19:35:30
CANX-2 30 Jun 19:21:50 19:24:08 15° 65° (ENE) 19:26:35 2200.000
CUTE-I 30 Jun 19:33:08 19:37:00 19° 270° (W) 19:40:42 437.470
PRISM 30 Jun 19:40:36 19:44:46 58° 101° (E) 19:48:53 437.425
STRAND 1 30 Jun 19:54:34 19:59:46 80° 103° (ESE) 20:04:54 437.568
CINEMA 3 30 Jun 19:56:57 19:59:56 18° 67° (ENE) 20:02:59 145.822/145.860
Cosmos 2504 30 Jun 20:02:49 20:04:59 11° 282° (WNW) 20:06:31 435.465 / 435.565
HO-68 30 Jun 20:07:09 20:14:10 64° 70° (ENE) 20:21:15 435.675
SEEDS 30 Jun 20:12:50 20:16:39 37° 71° (ENE) 20:20:32 437.485
CUSAT 1 30 Jun 20:13:52 20:16:07 21° 267° (W) 20:18:11 437.405
DOVE 4 30 Jun 20:14:15 20:19:09 58° 74° (ENE) 20:23:48 437.250
Oscar 11 30 Jun 20:18:58 20:21:19 15° 65° (ENE) 20:23:51 145.826/435.025
SO-50 30 Jun 20:24:16 20:26:27 13° 330° (NNW) 20:28:31 436.795
AUBIESAT-1 30 Jun 20:32:39 20:35:00 15° 97° (E) 20:37:36 437.475
AAUSAT CUBESAT 2 30 Jun 20:34:53 20:38:48 44° 73° (ENE) 20:42:46 437.432
UWE-3 30 Jun 20:38:34 20:41:22 18° 67° (ENE) 20:44:17 435.000/436.395/437.385
Cosmos 2499 30 Jun 20:38:48 20:42:42 15° 59° (ENE) 20:47:12 435.465 / 435.565
FUNcube-1 30 Jun 20:38:48 20:40:48 14° 65° (ENE) 20:42:58 145.935
GOMX 1 30 Jun 20:46:34 20:51:39 46° 262° (W) 20:56:27 467.674
DANDE 30 Jun 20:48:05 20:49:46 14° 272° (W) 20:51:14 436.750
CUBESAT XI-V 30 Jun 20:48:21 20:50:03 12° 299° (WNW) 20:51:31 437.345
BRITE-PL 30 Jun 20:49:15 20:54:08 30° 266° (W) 20:58:45 437.365/2234.400
CUTE 1.7 + AOD 2 30 Jun 20:52:49 20:56:58 63° 260° (W) 21:01:10 437.475
CANX-2 30 Jun 20:55:34 20:59:41 52° 261° (W) 21:03:49 2200.000
COMPASS 1 30 Jun 20:56:55 21:01:04 87° 256° (WSW) 21:05:15 437.405
M-CUBED/EXP-1 PRIME 30 Jun 21:01:32 21:05:18 35° 103° (ESE) 21:09:21 437.505
CUBEBUG 2 30 Jun 21:13:09 21:17:23 51° 74° (ENE) 21:21:31 437.445
PRISM 30 Jun 21:17:33 21:19:47 14° 297° (WNW) 21:21:49 437.425
GONETS M04 30 Jun 21:17:37 21:26:19 73° 265° (W) 21:34:55
DELFI C3 30 Jun 21:20:30 21:24:17 44° 73° (ENE) 21:28:09 145.870
DX 1 30 Jun 21:23:20 21:26:12 18° 65° (ENE) 21:29:12 434.975-435.025
CINEMA 3 30 Jun 21:32:25 21:36:53 47° 261° (W) 21:41:09 145.822/145.860
ZACube-1 30 Jun 21:34:27 21:38:35 54° 74° (ENE) 21:42:41 437.345
STRAND 1 30 Jun 21:35:33 21:38:22 14° 300° (WNW) 21:40:58 437.568
AISAT 30 Jun 21:43:03 21:45:47 17° 64° (ENE) 21:48:39 437.250
SEEDS 30 Jun 21:49:36 21:52:37 19° 268° (W) 21:55:32 437.485
UKube-1 30 Jun 21:49:53 21:53:38 29° 69° (ENE) 21:57:26 .
Oscar 11 30 Jun 21:52:54 21:57:06 54° 260° (W) 22:01:21 145.826/435.025
50 SAT 30 Jun 21:53:22 21:56:00 18° 67° (ENE) 21:58:44 437.505
DOVE 4 30 Jun 21:54:08 21:57:15 16° 270° (W) 22:00:06 437.250
HO-68 30 Jun 21:56:43 22:02:29 25° 268° (W) 22:08:03 435.675
ESTCUBE 1 30 Jun 21:59:38 22:02:13 16° 64° (ENE) 22:04:59 437.505/2401.250
AUBIESAT-1 30 Jun 22:05:59 22:09:58 52° 291° (WNW) 22:14:13 437.475
AAUSAT CUBESAT 2 30 Jun 22:12:07 22:14:41 15° 270° (W) 22:17:06 437.432
FUNcube-1 30 Jun 22:12:33 22:16:44 57° 260° (W) 22:20:52 145.935
UWE-3 30 Jun 22:13:33 22:17:40 42° 262° (W) 22:21:41 435.000/436.395/437.385
CUBEBUG 1 30 Jun 22:14:25 22:17:22 18° 65° (ENE) 22:20:27 437.445
UNISAT 6 30 Jun 22:22:26 22:25:09 17° 91° (E) 22:28:02 437.425
HUMSAT D 30 Jun 22:28:35 22:32:42 86° 257° (WSW) 22:36:50 437.325/437.525
Cosmos 2499 30 Jun 22:29:35 22:37:18 77° 80° (E) 22:45:38 435.465 / 435.565
VELOX 1 30 Jun 22:31:59 22:36:16 48° 72° (ENE) 22:40:36 145.980
M-CUBED/EXP-1 PRIME 30 Jun 22:36:46 22:39:59 23° 296° (WNW) 22:43:18 437.505
POLYITAN 1 30 Jun 22:49:39 22:51:29 13° 89° (E) 22:53:32 437.675
DUCHIFAT 1 30 Jun 22:50:19 22:51:57 12° 89° (E) 22:53:48 145.980
CUBEBUG 2 30 Jun 22:51:59 22:54:25 14° 270° (W) 22:56:38 437.445
DELFI C3 30 Jun 22:57:21 22:59:40 14° 270° (W) 23:01:50 145.870
DX 1 30 Jun 22:57:54 23:02:08 47° 261° (W) 23:06:23 434.975-435.025
ANTELSAT 30 Jun 23:05:44 23:09:57 48° 99° (E) 23:14:15 437.575/2403.000
ZACube-1 30 Jun 23:13:13 23:15:20 13° 271° (W) 23:17:15 437.345
AISAT 30 Jun 23:17:36 23:21:59 53° 260° (W) 23:26:23 437.250
GONETS M04 30 Jun 23:17:47 23:21:45 13° 284° (WNW) 23:25:04
QB50P2 30 Jun 23:18:40 23:22:17 27° 95° (E) 23:25:56 145.880/145.840
TIGRISAT 30 Jun 23:19:59 23:24:18 67° 101° (E) 23:28:41 435.000
POPSAT HIP 1 30 Jun 23:20:31 23:24:07 28° 95° (E) 23:27:46 437.405
BUGSAT 1 30 Jun 23:25:17 23:28:13 20° 92° (E) 23:31:15 437.445
UKube-1 30 Jun 23:26:05 23:29:45 26° 265° (W) 23:33:22 .
50 SAT 30 Jun 23:26:56 23:30:26 32° 263° (W) 23:33:55 437.505
SPROUT 30 Jun 23:31:47 23:35:37 33° 70° (ENE) 23:39:31 437.525
ESTCUBE 1 30 Jun 23:34:11 23:38:40 58° 260° (W) 23:43:10 437.505/2401.250
PCSat 30 Jun 23:46:53 23:48:50 12° 33° (NNE) 23:50:59 145.827
CUBEBUG 1 30 Jun 23:49:07 23:53:24 46° 261° (W) 23:57:42 437.445
UNISAT 6 30 Jun 23:58:03 00:02:12 46° 288° (WNW) 00:06:25 437.425
QB50P1 30 Jun 23:59:37 00:03:51 79° 102° (ESE) 00:08:03 145.935-145.965
VELOX 1 01 Jul 00:10:11 00:13:08 17° 269° (W) 00:15:55 145.980
NANOSAT C BR1 01 Jul 00:15:34 00:19:46 70° 285° (WNW) 00:23:56 145.865
POLYITAN 1 01 Jul 00:23:41 00:27:49 55° 287° (WNW) 00:31:55 437.675
DUCHIFAT 1 01 Jul 00:24:04 00:28:13 57° 286° (WNW) 00:32:18 145.980
Cosmos 2499 01 Jul 00:24:12 00:29:49 21° 277° (W) 00:35:21 435.465 / 435.565
TISAT 1 01 Jul 00:29:42 00:33:58 85° 255° (WSW) 00:38:15 437.305
BEESAT 01 Jul 00:35:34 00:39:02 21° 65° (ENE) 00:42:38 436.000
ANTELSAT 01 Jul 00:43:33 00:46:25 17° 294° (WNW) 00:49:11 437.575/2403.000
SWISSCUBE 01 Jul 00:49:44 00:53:51 30° 68° (ENE) 00:58:04 437.505
ITUPSAT 1 01 Jul 00:53:01 00:57:06 30° 68° (ENE) 01:01:17 437.325
QB50P2 01 Jul 00:54:35 00:58:07 26° 292° (WNW) 01:01:35 145.880/145.840
RS-15 01 Jul 00:55:06 00:58:46 13° 97° (E) 01:03:30 29.354- 29.394
POPSAT HIP 1 01 Jul 00:56:25 00:59:56 25° 291° (WNW) 01:03:21 437.405
TIGRISAT 01 Jul 00:58:35 01:00:36 13° 296° (WNW) 01:02:25 435.000
BUGSAT 1 01 Jul 01:00:07 01:03:49 33° 290° (WNW) 01:07:27 437.445
SPROUT 01 Jul 01:08:18 01:11:47 23° 267° (W) 01:15:10 437.525
Cosmos 2491 01 Jul 01:15:50 01:21:47 20° 60° (ENE) 01:28:06 435.465 / 435.565
KKS-1 01 Jul 01:22:49 01:23:20 10° 61° (ENE) 01:24:06 437.445
PCSat 01 Jul 01:28:16 01:33:36 54° 55° (NE) 01:38:55 145.827
SO-50 01 Jul 01:31:00 01:35:04 25° 42° (NE) 01:39:10 436.795
QB50P1 01 Jul 01:38:19 01:39:09 10° 298° (WNW) 01:39:45 145.935-145.965
Gurwin Techsat 1B 01 Jul 01:54:10 01:56:28 13° 87° (E) 01:59:04 435.225
YUBILEINY 01 Jul 01:57:40 02:00:13 12° 75° (ENE) 02:03:29 435.215
BEESAT 01 Jul 02:12:01 02:16:36 45° 262° (W) 02:21:12 436.000
Oscar 19 01 Jul 02:19:43 02:24:52 78° 103° (ESE) 02:30:01 437.125/150
AIST 1 01 Jul 02:19:48 02:22:44 18° 69° (ENE) 02:25:45
STARS 01 Jul 02:21:45 02:25:20 25° 68° (ENE) 02:29:00 437.465
ITAMSAT 1 01 Jul 02:22:53 02:26:58 23° 93° (E) 02:31:10 435.822/435.867
SWISSCUBE 01 Jul 02:27:28 02:31:40 30° 265° (W) 02:35:52 437.505
ITUPSAT 1 01 Jul 02:30:41 02:34:57 31° 264° (W) 02:39:12 437.325
JAS-2 01 Jul 02:54:16 02:58:18 18° 89° (E) 03:02:58 435.910
KKS-1 01 Jul 02:54:52 02:59:20 89° 244° (WSW) 03:03:50 437.445
RS-15 01 Jul 02:58:28 03:09:08 66° 116° (ESE) 03:20:12 29.354- 29.394
AO-7 01 Jul 03:10:41 03:14:45 15° 85° (E) 03:19:25 29.400- 29.500
SO-50 01 Jul 03:11:06 03:15:57 54° 242° (WSW) 03:20:41 436.795
Cosmos 2491 01 Jul 03:11:17 03:20:06 89° 267° (W) 03:28:50 435.465 / 435.565
PCSat 01 Jul 03:12:30 03:16:40 22° 252° (WSW) 03:20:40 145.827
Gurwin Techsat 1B 01 Jul 03:31:50 03:37:10 79° 286° (WNW) 03:42:30 435.225
HORYU 2 01 Jul 03:46:30 03:49:50 21° 93° (E) 03:53:16 437.375
YUBILEINY 01 Jul 03:47:00 03:55:34 68° 94° (E) 04:04:12 435.215
AIST 1 01 Jul 03:56:31 04:00:39 41° 267° (W) 04:04:42
STARS 01 Jul 03:57:45 04:01:41 31° 264° (W) 04:05:35 437.465
Oscar 19 01 Jul 04:00:50 04:03:39 15° 299° (WNW) 04:06:17 437.125/150
ITAMSAT 1 01 Jul 04:01:44 04:06:43 44° 290° (WNW) 04:11:37 435.822/435.867
MOZHAYETS 4 01 Jul 04:19:40 04:24:12 70° 75° (ENE) 04:28:47
JAS-2 01 Jul 04:37:36 04:44:00 83° 285° (WNW) 04:51:13 435.910
CUBESAT XI-V 01 Jul 04:39:11 04:40:07 11° 61° (ENE) 04:41:18 437.345
Cosmos 2504 01 Jul 04:54:58 04:59:05 17° 81° (E) 05:03:32 435.465 / 435.565
AO-7 01 Jul 05:00:41 05:09:07 78° 106° (ESE) 05:17:28 29.400- 29.500
Cosmos 2491 01 Jul 05:10:18 05:15:51 18° 282° (WNW) 05:20:54 435.465 / 435.565
RS-15 01 Jul 05:11:56 05:22:16 43° 322° (NW) 05:32:54 29.354- 29.394
Gurwin Techsat 1B 01 Jul 05:14:30 05:16:23 12° 302° (WNW) 05:17:59 435.225
HORYU 2 01 Jul 05:22:29 05:26:38 38° 290° (WNW) 05:30:44 437.375
STRAND 1 01 Jul 05:34:25 05:37:30 17° 62° (ENE) 05:40:47 437.568
YUBILEINY 01 Jul 05:46:00 05:53:15 27° 296° (WNW) 06:00:16 435.215
MOZHAYETS 4 01 Jul 06:00:14 06:02:01 12° 273° (W) 06:03:32
CUTE-I 01 Jul 06:08:30 06:12:28 21° 91° (E) 06:16:34 437.470
CUBESAT XI-V 01 Jul 06:12:10 06:16:53 87° 74° (ENE) 06:21:38 437.345
JAS-2 01 Jul 06:24:45 06:28:29 16° 300° (WNW) 06:32:07 435.910
PRISM 01 Jul 06:31:05 06:35:03 45° 72° (ENE) 06:39:05 437.425
Cubesat XI-IV 01 Jul 06:40:44 06:45:49 42° 98° (E) 06:50:53 437.490
Cosmos 2504 01 Jul 06:44:24 06:51:41 80° 279° (W) 06:58:53 435.465 / 435.565
AO-7 01 Jul 06:54:29 07:01:12 27° 305° (NW) 07:07:40 29.400- 29.500
STRAND 1 01 Jul 07:11:05 07:16:12 68° 258° (WSW) 07:21:22 437.568
AUBIESAT-1 01 Jul 07:21:46 07:23:54 16° 62° (ENE) 07:26:09 437.475
RS-15 01 Jul 07:30:14 07:38:46 23° 355° (N) 07:47:33 29.354- 29.394
O/OREOS (USA 219) 01 Jul 07:31:43 07:35:11 23° 103° (ESE) 07:38:45 437.305
CUSAT 1 01 Jul 07:36:14 07:42:01 30° 94° (E) 07:46:50 437.405
CUTE-I 01 Jul 07:47:41 07:52:53 51° 289° (WNW) 07:58:03 437.470
M-CUBED/EXP-1 PRIME 01 Jul 07:51:11 07:54:20 43° 68° (ENE) 07:57:33 437.505
BEESAT 3 01 Jul 08:07:44 08:11:39 49° 119° (ESE) 08:15:38 437.485
PRISM 01 Jul 08:08:13 08:10:47 15° 269° (W) 08:13:13 437.425
DANDE 01 Jul 08:11:56 08:19:10 47° 96° (E) 08:24:59 436.750
BEESAT 2 01 Jul 08:14:30 08:18:25 45° 118° (ESE) 08:22:24 435.950
DOVE 4 01 Jul 08:14:52 08:16:24 12° 88° (E) 08:18:10 437.250
Cubesat XI-IV 01 Jul 08:21:14 08:25:45 27° 295° (WNW) 08:30:09 437.490
GONETS M04 01 Jul 08:24:26 08:31:19 28° 83° (E) 08:38:28
CUTE 1.7 + AOD 2 01 Jul 08:37:56 08:41:09 21° 92° (E) 08:44:29 437.475
CANX-2 01 Jul 08:40:28 08:44:00 25° 94° (E) 08:47:35 2200.000
COMPASS 1 01 Jul 08:41:01 08:43:17 15° 89° (E) 08:45:45 437.405
Cosmos 2504 01 Jul 08:42:53 08:46:32 14° 302° (WNW) 08:49:46 435.465 / 435.565
GOMX 1 01 Jul 08:48:08 08:52:17 48° 98° (E) 08:56:18 467.674
BRITE-PL 01 Jul 08:53:20 08:57:49 85° 284° (WNW) 09:02:00 437.365/2234.400
ISS 01 Jul 08:54:07 08:56:38 21° 135° (SE) 08:59:12 145.825
AUBIESAT-1 01 Jul 08:55:37 08:58:31 28° 258° (WSW) 09:01:27 437.475
AIST 2 01 Jul 09:07:59 09:11:59 42° 117° (ESE) 09:16:04 435.215
O/OREOS (USA 219) 01 Jul 09:10:20 09:14:26 35° 300° (WNW) 09:18:32 437.305
CUSAT 1 01 Jul 09:18:04 09:24:35 42° 284° (WNW) 09:29:39 437.405
HO-68 01 Jul 09:21:31 09:28:37 63° 102° (ESE) 09:35:43 435.675
UNISAT 6 01 Jul 09:22:42 09:25:20 17° 65° (ENE) 09:28:07 437.425
CINEMA 3 01 Jul 09:26:36 09:30:23 34° 97° (E) 09:34:14 145.822/145.860
SEEDS 01 Jul 09:31:38 09:35:52 68° 101° (E) 09:40:07 437.485
VERMONT LUNAR 01 Jul 09:38:18 09:41:05 30° 161° (SSE) 09:43:56 437.305
Oscar 11 01 Jul 09:39:53 09:43:28 25° 94° (E) 09:47:07 145.826/435.025
POLYITAN 1 01 Jul 09:44:10 09:45:43 12° 63° (ENE) 09:47:29 437.675
DUCHIFAT 1 01 Jul 09:44:17 09:45:32 11° 63° (ENE) 09:47:01 145.980
RS-15 01 Jul 09:45:56 09:55:57 33° 29° (NNE) 10:06:32 29.354- 29.394
BEESAT 3 01 Jul 09:46:47 09:49:53 20° 317° (NW) 09:52:56 437.485
DOVE 4 01 Jul 09:50:34 09:54:41 54° 286° (WNW) 09:58:42 437.250
AAUSAT CUBESAT 2 01 Jul 09:52:15 09:56:28 78° 102° (ESE) 10:00:41 437.432
BEESAT 2 01 Jul 09:53:29 09:56:43 21° 317° (NW) 09:59:54 435.950
DANDE 01 Jul 09:55:46 10:02:25 32° 287° (WNW) 10:07:42 436.750
FUNcube-1 01 Jul 10:00:29 10:03:51 24° 94° (E) 10:07:19 145.935
UWE-3 01 Jul 10:02:32 10:06:19 33° 96° (E) 10:10:10 435.000/436.395/437.385
ANTELSAT 01 Jul 10:05:28 10:09:33 45° 73° (ENE) 10:13:40 437.575/2403.000
QB50P2 01 Jul 10:12:27 10:15:49 24° 68° (ENE) 10:19:16 145.880/145.840
HUMSAT D 01 Jul 10:13:14 10:15:25 14° 90° (E) 10:17:48 437.325/437.525
CUTE 1.7 + AOD 2 01 Jul 10:13:17 10:17:11 34° 289° (WNW) 10:21:03 437.475
POPSAT HIP 1 01 Jul 10:14:08 10:17:31 24° 68° (ENE) 10:20:58 437.405
COMPASS 1 01 Jul 10:15:12 10:19:17 49° 287° (WNW) 10:23:22 437.405
CANX-2 01 Jul 10:16:11 10:19:56 29° 290° (WNW) 10:23:37 2200.000
BUGSAT 1 01 Jul 10:16:21 10:19:03 17° 66° (ENE) 10:21:52 437.445
GONETS M04 01 Jul 10:18:51 10:27:36 65° 282° (WNW) 10:36:18
TIGRISAT 01 Jul 10:19:22 10:23:37 62° 74° (ENE) 10:27:51 435.000
GOMX 1 01 Jul 10:27:30 10:30:04 15° 296° (WNW) 10:32:27 467.674
ISS 01 Jul 10:29:41 10:32:51 48° 331° (NNW) 10:36:01 145.825
DELFI C3 01 Jul 10:33:34 10:37:38 71° 101° (ESE) 10:41:41 145.870
CUBEBUG 2 01 Jul 10:39:46 10:43:57 74° 285° (WNW) 10:48:11 437.445
PHONESAT 2.4 01 Jul 10:40:09 10:42:56 23° 156° (SSE) 10:45:47 2401.200-2431.200
DX 1 01 Jul 10:45:49 10:49:31 27° 95° (E) 10:53:15 434.975-435.025
AIST 2 01 Jul 10:47:15 10:50:45 23° 316° (NW) 10:54:12 435.215
QB50P1 01 Jul 10:52:39 10:56:51 63° 74° (ENE) 11:01:04 145.935-145.965
UNISAT 6 01 Jul 10:57:38 11:01:49 47° 261° (W) 11:05:58 437.425
ZACube-1 01 Jul 10:58:16 11:02:27 75° 284° (WNW) 11:06:42 437.345
50 SAT 01 Jul 11:01:57 11:05:08 24° 95° (E) 11:08:23 437.505
CINEMA 3 01 Jul 11:04:20 11:07:26 20° 293° (WNW) 11:10:27 145.822/145.860
Cosmos 2499 01 Jul 11:07:33 11:14:26 59° 93° (E) 11:21:25 435.465 / 435.565
AISAT 01 Jul 11:07:58 11:11:42 27° 95° (E) 11:15:27 437.250
NANOSAT C BR1 01 Jul 11:08:18 11:12:34 88° 257° (WSW) 11:16:49 145.865
SEEDS 01 Jul 11:09:23 11:11:10 12° 296° (WNW) 11:12:46 437.485
HO-68 01 Jul 11:10:02 11:15:55 28° 300° (WNW) 11:21:39 435.675
UKube-1 01 Jul 11:12:04 11:16:16 48° 99° (E) 11:20:27 .
VERMONT LUNAR 01 Jul 11:14:41 11:17:49 60° 177° (S) 11:20:57 437.305
Oscar 11 01 Jul 11:15:51 11:19:39 30° 291° (WNW) 11:23:25 145.826/435.025
DUCHIFAT 1 01 Jul 11:16:35 11:20:50 73° 258° (WSW) 11:25:04 145.980
POLYITAN 1 01 Jul 11:16:54 11:21:08 68° 258° (WSW) 11:25:23 437.675
ESTCUBE 1 01 Jul 11:26:34 11:30:27 28° 94° (E) 11:34:22 437.505/2401.250
AAUSAT CUBESAT 2 01 Jul 11:30:38 11:31:31 10° 297° (WNW) 11:32:10 437.432
FUNcube-1 01 Jul 11:36:32 11:40:13 29° 290° (WNW) 11:43:52 145.935
CUBEBUG 1 01 Jul 11:37:31 11:41:22 30° 96° (E) 11:45:12 437.445
UWE-3 01 Jul 11:39:27 11:42:42 22° 292° (WNW) 11:45:55 435.000/436.395/437.385
ANTELSAT 01 Jul 11:43:53 11:46:38 16° 269° (W) 11:49:13 437.575/2403.000
HUMSAT D 01 Jul 11:47:29 11:51:29 48° 287° (WNW) 11:55:30 437.325/437.525
QB50P2 01 Jul 11:47:47 11:51:36 31° 264° (W) 11:55:22 145.880/145.840
POPSAT HIP 1 01 Jul 11:49:29 11:53:17 30° 264° (W) 11:57:02 437.405
BUGSAT 1 01 Jul 11:50:08 11:54:13 45° 261° (W) 11:58:17 437.445
VELOX 1 01 Jul 11:58:01 12:02:28 90° 86° (E) 12:06:52 145.980
RS-15 01 Jul 11:58:37 12:10:22 85° 57° (ENE) 12:22:36 29.354- 29.394
TIGRISAT 01 Jul 11:59:14 12:00:52 12° 272° (W) 12:02:14 435.000
Oscar 19 01 Jul 12:00:31 12:03:31 16° 62° (ENE) 12:06:42 437.125/150
ISS 01 Jul 12:07:29 12:09:49 18° 351° (N) 12:12:08 145.825
DELFI C3 01 Jul 12:11:06 12:12:13 11° 297° (WNW) 12:13:06 145.870
TISAT 1 01 Jul 12:15:05 12:17:14 14° 90° (E) 12:19:34 437.305
PHONESAT 2.4 01 Jul 12:17:14 12:20:38 56° 172° (S) 12:24:04 2401.200-2431.200
DX 1 01 Jul 12:21:59 12:25:44 28° 292° (WNW) 12:29:25 434.975-435.025
GONETS M04 01 Jul 12:22:29 12:26:41 13° 307° (NW) 12:30:18
QB50P1 01 Jul 12:31:38 12:33:12 11° 272° (W) 12:34:32 145.935-145.965
50 SAT 01 Jul 12:36:29 12:39:44 25° 290° (WNW) 12:42:55 437.505
AISAT 01 Jul 12:44:25 12:48:15 29° 292° (WNW) 12:52:01 437.250
UKube-1 01 Jul 12:49:12 12:52:04 17° 295° (WNW) 12:54:46 .
VERMONT LUNAR 01 Jul 12:51:34 12:54:35 42° 194° (SSW) 12:57:38 437.305
SPROUT 01 Jul 12:53:13 12:57:27 58° 100° (E) 13:01:40 437.525
Cosmos 2499 01 Jul 13:02:30 13:08:11 24° 294° (WNW) 13:13:43 435.465 / 435.565
ESTCUBE 1 01 Jul 13:03:19 13:07:18 30° 291° (WNW) 13:11:12 437.505/2401.250
CUBEBUG 1 01 Jul 13:13:58 13:17:38 26° 292° (WNW) 13:21:11 437.445
Gurwin Techsat 1B 01 Jul 13:15:11 13:19:17 24° 65° (ENE) 13:23:31 435.225
Oscar 19 01 Jul 13:37:15 13:42:23 70° 259° (WSW) 13:47:31 437.125/150
ITAMSAT 1 01 Jul 13:41:14 13:46:01 38° 69° (ENE) 13:50:52 435.822/435.867
ISS 01 Jul 13:44:42 13:47:05 19° 11° (N) 13:49:28 145.825
TISAT 1 01 Jul 13:49:18 13:53:22 49° 287° (WNW) 13:57:24 437.305
PHONESAT 2.4 01 Jul 13:55:07 13:58:31 55° 189° (S) 14:01:57 2401.200-2431.200
YUBILEINY 01 Jul 13:56:34 14:04:18 35° 68° (ENE) 14:12:11 435.215
AO-7 01 Jul 14:09:56 14:16:21 27° 54° (NE) 14:23:01 29.400- 29.500
BEESAT 01 Jul 14:11:25 14:15:59 42° 98° (E) 14:20:33 436.000
RS-15 01 Jul 14:12:20 14:21:48 28° 256° (WSW) 14:30:59 29.354- 29.394
Cosmos 2491 01 Jul 14:19:20 14:25:22 22° 81° (E) 14:31:48 435.465 / 435.565
SWISSCUBE 01 Jul 14:26:19 14:31:07 66° 101° (E) 14:35:54 437.505
VERMONT LUNAR 01 Jul 14:29:21 14:31:06 14° 209° (SSW) 14:32:47 437.305
ITUPSAT 1 01 Jul 14:29:52 14:34:41 64° 101° (ESE) 14:39:28 437.325
SPROUT 01 Jul 14:30:48 14:33:06 14° 296° (WNW) 14:35:12 437.525
HORYU 2 01 Jul 14:45:38 14:48:58 22° 66° (ENE) 14:52:24 437.375
KKS-1 01 Jul 14:46:31 14:49:17 17° 91° (E) 14:52:12 437.445
JAS-2 01 Jul 14:51:54 14:56:43 42° 69° (ENE) 15:01:44 435.910
Gurwin Techsat 1B 01 Jul 14:53:53 14:59:00 47° 262° (W) 15:04:08 435.225
